Location: Gaast
(52.9002°N, 5.8891°E)
Time: 12:17:16
(UTC+00:00)

Cosmos 304 Rocket - Pass Details

Date: 18 November 2025
Orbit: 668 x 677 km, 74.0° (Epoch: 10 December)

Event Time Altitude Azimuth Distance (km) Brightness Sun altitude
Rises 18:42:18 0° 214° (SW) 3,007 7.5 -27.5°
Reaches altitude 10° 18:44:36 10° 218° (SW) 2,099 6.6 -27.8°
Enters shadow 18:48:46 58° 266° (W) 785 4.2 -28.4°
